Вернуться в каталог

STARLINK-3617

АктивенСвязьVLEO
NORAD 51780·PAYLOAD·🇺🇸 United States

Запущен Feb 25, 2022 с Vandenberg Space Force Base

Loading…

Ближайшие Пролёты (ближайшие 24 часа)

TLE

СвежийSource: CelesTrak SupGP

Эпоха: Sep 14, 2026, 22:05 UTC

1 51780C 22017N   26257.92062500 -.00020848  00000+0 -61516-3 0  2571
2 51780  53.1571 197.4724 0001351  88.7142 226.3276 15.34442182    12

Отслеживайте STARLINK-3617 в реальном времени с AllMySat

Download on the App Store